This is the latest recevied weather packets stored in our database for station/object IZ1UQG-1. If no packets are shown the sender has not sent any weather packets the latest 10 day(s).
| Time | Temp. | Humidity | Pressure | Rain* | Wind** | Luminosity | Snow |
|---|---|---|---|---|---|---|---|
| 1778057633 | 14.44° C | 86% | 1007.4 hPa | 48.26 mm | - | - | - |
| 1778057333 | 14.44° C | 86% | 1007.5 hPa | 18.29 mm | - | - | - |
| 1778057033 | 14.44° C | 87% | 1007.6 hPa | 21.34 mm | - | - | - |
| 1778056733 | 14.44° C | 87% | 1007.5 hPa | 16.76 mm | - | - | - |
| 1778056433 | 14.44° C | 87% | 1007.4 hPa | 30.73 mm | - | - | - |
| 1778056133 | 14.44° C | 86% | 1007.4 hPa | 252.73 mm | - | - | - |
| 1778055833 | 14.44° C | 86% | 1007.4 hPa | 250.7 mm | - | - | - |
| 1778055533 | 14.44° C | 86% | 1007.5 hPa | 12.19 mm | - | - | - |
| 1778055233 | 13.89° C | 85% | 1007.6 hPa | 22.61 mm | - | - | - |
| 1778054933 | 13.89° C | 84% | 1007.6 hPa | 4.83 mm | - | - | - |
| 1778054633 | 13.89° C | 84% | 1007.7 hPa | 253.24 mm | - | - | - |
| 1778054333 | 13.89° C | 84% | 1007.9 hPa | 10.16 mm | - | - | - |
| 1778054033 | 13.33° C | 84% | 1007.8 hPa | 248.41 mm | - | - | - |
| 1778053733 | 13.33° C | 84% | 1007.8 hPa | 250.7 mm | - | - | - |
| 1778053433 | 13.33° C | 84% | 1007.8 hPa | 246.38 mm | - | - | - |
| 1778053133 | 13.33° C | 84% | 1007.9 hPa | 229.87 mm | - | - | - |
| 1778052833 | 13.33° C | 84% | 1008.1 hPa | 243.84 mm | - | - | - |
| 1778052533 | 13.33° C | 84% | 1008.1 hPa | 233.43 mm | - | - | - |
| 1778052233 | 13.33° C | 84% | 1008.3 hPa | 215.9 mm | - | - | - |
| 1778051933 | 13.33° C | 84% | 1008.3 hPa | 209.04 mm | - | - | - |
| 1778051634 | 13.33° C | 84% | 1008.2 hPa | 215.9 mm | - | - | - |
| 1778051334 | 13.33° C | 84% | 1008.2 hPa | 215.39 mm | - | - | - |
| 1778051034 | 13.33° C | 85% | 1008.1 hPa | 208.03 mm | - | - | - |
| 1778050734 | 13.33° C | 84% | 1008.3 hPa | 178.05 mm | - | - | - |
| 1778050434 | 13.33° C | 84% | 1008.3 hPa | 186.94 mm | - | - | - |
* Rain latest hour (hover to see other rain measurements)
** Current wind speed in m/s (hover to see current wind gust speed)